"2010-07-21 00:00:00",301,1.811,235.1,7.475,0.253,19.31,107.6455,18.85,19.7,74.26,0,110.8,13.25,19.67,197.1
"2010-07-21 00:00:30",302,1.71,231.8,7.75,0.177,19.31,107.6446,18.85,19.69,74.22,0,110.7,13.25,19.67,193.8
"2010-07-21 00:01:00",303,1.599,210.3,8.54,0.36,19.33,107.6347,18.82,19.7,74.18,0,110.7,13.25,19.64,172.3
"2010-07-21 00:01:30",304,1.801,214.4,3.277,0.207,19.41,107.6325,18.82,19.68,74.14,0,110.7,13.25,19.63,176.4
"2010-07-21 00:02:00",305,2.196,222.8,5.152,0.292,19.9,107.6316,18.81,19.69,74.16,0,110.7,13.25,19.63,184.8
"2010-07-21 00:02:30",306,1.835,215.4,5.524,0.191,20.18,107.6326,18.82,19.68,74.33,0,110.7,13.25,19.63,177.4
"2010-07-21 00:03:00",307,1.82,221.8,4.2,0.167,19.32,107.6322,18.82,19.67,74.39,0,110.7,13.25,19.63,183.8
"2010-07-21 00:03:30",308,1.869,219.3,4.877,0.07,19.28,107.6319,18.82,19.66,74.45,0,110.8,13.25,19.63,181.3
"2010-07-21 00:04:00",309,1.938,201.9,8.57,0.143,19.48,107.6322,18.82,19.66,74.67,0,110.8,13.25,19.63,163.9
"2010-07-21 00:04:30",310,2.043,195.8,3.848,0.181,19.52,107.632,18.82,19.65,74.82,0,110.7,13.25,19.63,157.8
"2010-07-21 00:05:00",311,1.631,206.8,8.98,0.29,19.54,107.624,18.8,19.64,74.91,0,110.7,13.25,19.61,168.8
"2010-07-21 00:05:30",312,1.396,194.4,6.971,0.211,19.65,107.6072,18.75,19.64,74.83,0,110.7,13.25,19.57,156.4
"2010-07-21 00:06:00",313,1.216,182,3.951,0.273,19.86,107.599,18.73,19.63,74.99,0,110.7,13.25,19.55,144.0
"2010-07-21 00:06:30",314,1.325,171.6,5.342,0.179,19.86,107.5985,18.73,19.62,75.25,0,110.7,13.25,19.55,133.6
"2010-07-21 00:07:00",315,0.949,174.7,6.317,0.235,19.93,107.5985,18.73,19.6,75.25,0,110.7,13.25,19.55,136.7
"2010-07-21 00:07:30",316,0.608,211.3,6.964,0.161,19.89,107.5956,18.72,19.59,75.29,0,110.7,13.25,19.54,173.3
"2010-07-21 00:08:00",317,0.749,177.3,14.51,0.283,19.85,107.5819,18.69,19.59,75.44,0,110.7,13.25,19.50,139.3
"2010-07-21 00:08:30",318,1.185,191.6,5.912,0.109,19.89,107.5698,18.66,19.57,75.18,0,110.7,13.25,19.47,153.6
"2010-07-21 00:09:00",319,0.89,181.2,8.51,0.119,19.8,107.5661,18.65,19.56,75.21,0,110.7,13.25,19.46,143.2
"2010-07-21 00:09:30",320,0.87,175.1,3.258,0.099,19.85,107.565,18.64,19.56,75.29,0,110.7,13.25,19.46,137.1
"2010-07-21 00:10:00",321,0.829,174.9,4.34,0.113,19.91,107.565,18.64,19.53,75.44,0,110.7,13.25,19.46,136.9
"2010-07-21 00:10:30",322,0.907,182.1,6.997,0.167,19.91,107.565,18.64,19.52,75.44,0,110.7,13.25,19.46,144.1
"2010-07-21 00:11:00",323,0.941,161.5,3.7,0.084,19.72,107.5521,18.61,19.52,75.68,0,110.8,13.25,19.43,123.5
"2010-07-21 00:11:30",324,0.93,152.2,2.348,0.064,19.61,107.5371,18.57,19.5,75.85,0,110.7,13.25,19.39,114.2
"2010-07-21 00:12:00",325,1.1,151.4,4.149,0.09,19.44,107.5312,18.56,19.49,75.72,0,110.7,13.25,19.37,113.4
"2010-07-21 00:12:30",326,1.285,152.8,2.026,0.063,19.61,107.5312,18.56,19.47,75.59,0,110.7,13.25,19.37,114.8
"2010-07-21 00:13:00",327,1.649,148.9,1.925,0.15,19.28,107.5312,18.56,19.46,75.57,0,110.7,13.25,19.37,110.9
"2010-07-21 00:13:30",328,2.161,156.4,4.347,0.358,19.37,107.5312,18.56,19.47,75.46,0,110.7,13.25,19.37,118.4
"2010-07-21 00:14:00",329,2.853,159.7,3.27,0.165,19.21,107.5428,18.59,19.47,75.07,0,110.7,13.25,19.40,121.7
"2010-07-21 00:14:30",330,3.263,156.2,1.66,0.111,19.26,107.5636,18.64,19.47,75.73,0,110.7,13.25,19.46,118.2
"2010-07-21 00:15:00",331,3.619,161.3,1.975,0.141,19.14,107.565,18.64,19.49,75.62,0,110.7,13.25,19.46,123.3
"2010-07-21 00:15:30",332,3.817,162.8,2.376,0.199,19.24,107.5667,18.65,19.48,74.42,0,110.7,13.25,19.47,124.8
"2010-07-21 00:16:00",333,4.247,165.2,1.229,0.069,19.51,107.5954,18.72,19.51,73.39,0,110.7,13.25,19.54,127.2
"2010-07-21 00:16:30",334,4.571,167.9,2.696,0.128,19.27,107.6196,18.78,19.55,73.46,0,110.7,13.25,19.60,129.9
"2010-07-21 00:17:00",335,4.887,171.1,1.424,0.13,19.22,107.6326,18.82,19.59,74.37,0,110.7,13.25,19.63,133.1
"2010-07-21 00:17:30",336,4.855,169.7,0.782,0.117,19.31,107.6326,18.82,19.62,74.37,0,110.7,13.25,19.63,131.7
"2010-07-21 00:18:00",337,4.911,170,1.058,0.175,19.46,107.619,18.78,19.61,74.45,0,110.7,13.25,19.60,132.0
"2010-07-21 00:18:30",338,5.769,171,2.021,0.297,19.55,107.5999,18.73,19.6,74.41,0,110.7,13.25,19.55,133.0
"2010-07-21 00:19:00",339,5.873,174.3,3.034,0.132,19.65,107.5988,18.73,19.6,74.66,0,110.7,13.25,19.55,136.3
"2010-07-21 00:19:30",340,5.844,171.4,1.567,0.17,19.74,107.5988,18.73,19.61,74.32,0,110.7,13.25,19.55,133.4
"2010-07-21 00:20:00",341,6.32,173.8,1.366,0.178,19.8,107.5988,18.73,19.59,74.44,0,110.7,13.25,19.55,135.8
"2010-07-21 00:20:30",342,6.557,175.7,0.605,0.092,19.85,107.5988,18.73,19.6,74.58,0,110.7,13.25,19.55,137.7
"2010-07-21 00:21:00",343,6.84,177.7,0.776,0.058,19.79,107.5988,18.73,19.6,74.81,0,110.7,13.25,19.55,139.7
"2010-07-21 00:21:30",344,6.75,178,0.745,0.153,19.73,107.5918,18.71,19.58,75.2,0,110.7,13.25,19.53,140.0
"2010-07-21 00:22:00",345,6.747,176.8,1.32,0.133,19.77,107.5794,18.68,19.58,75.38,0,110.7,13.26,19.50,138.8
"2010-07-21 00:22:30",346,6.764,178.4,1.313,0.083,19.76,107.5664,18.65,19.57,75.55,0,110.7,13.26,19.46,140.4
"2010-07-21 00:23:00",347,6.864,181.9,0.721,0.083,19.76,107.5667,18.65,19.56,75.96,0,110.7,13.26,19.47,143.9
"2010-07-21 00:23:30",348,7.007,183.1,0.876,0.172,19.78,107.5653,18.64,19.57,76.56,0,110.7,13.26,19.46,145.1
"2010-07-21 00:24:00",349,6.721,185.2,0.547,0.085,19.72,107.5653,18.64,19.57,76.66,0,110.7,13.26,19.46,147.2
"2010-07-21 00:24:30",350,6.892,183.5,1.113,0.212,19.76,107.5656,18.65,19.56,76.26,0,110.7,13.25,19.46,145.5
"2010-07-21 00:25:00",351,7.046,181.9,1.425,0.164,19.69,107.5718,18.66,19.56,76.43,0,110.7,13.26,19.48,143.9
"2010-07-21 00:25:30",352,7.21,177.5,1.366,0.137,19.59,107.5822,18.69,19.57,76.64,0,110.7,13.25,19.51,139.5
"2010-07-21 00:26:00",353,7.211,179.1,2.292,0.132,19.53,107.5785,18.68,19.57,77.05,0,110.7,13.25,19.50,141.1
"2010-07-21 00:26:30",354,6.956,179.8,1.115,0.142,19.53,107.572,18.66,19.56,77.17,0,110.7,13.25,19.48,141.8
"2010-07-21 00:27:00",355,6.527,182.7,1.224,0.23,19.55,107.5661,18.65,19.56,77.06,0,110.7,13.25,19.46,144.7
"2010-07-21 00:27:30",356,6.726,179.9,1.721,0.365,19.51,107.5658,18.65,19.55,77.01,0,110.7,13.25,19.46,141.9
"2010-07-21 00:28:00",357,7.304,179.7,1.243,0.153,19.49,107.5673,18.65,19.57,77.26,0,110.7,13.25,19.47,141.7
"2010-07-21 00:28:30",358,7.049,178.9,1.383,0.17,19.44,107.5749,18.67,19.57,77.21,0,110.7,13.25,19.49,140.9
"2010-07-21 00:29:00",359,7.552,178.2,0.782,0.132,19.5,107.5853,18.7,19.57,76.39,0,110.7,13.25,19.51,140.2
"2010-07-21 00:29:30",360,7.54,182.7,1.703,0.146,19.59,107.5948,18.72,19.56,76.12,0,110.7,13.25,19.54,144.7
"2010-07-21 00:30:00",361,7.283,185.8,2.163,0.238,19.56,107.5988,18.73,19.59,76.99,0,110.7,13.25,19.55,147.8
"2010-07-21 00:30:30",362,7.141,190.1,1.589,0.293,19.6,107.5988,18.73,19.59,77.08,0,110.7,13.25,19.55,152.1
"2010-07-21 00:31:00",363,7.485,186.8,2.859,0.206,19.63,107.5988,18.73,19.58,77.19,0,110.7,13.25,19.55,148.8
"2010-07-21 00:31:30",364,7.79,187.3,0.961,0.511,19.67,107.5988,18.73,19.6,77.4,0,110.7,13.25,19.55,149.3
"2010-07-21 00:32:00",365,8.06,190.4,1.423,0.313,19.69,107.5988,18.73,19.6,77.34,0,110.7,13.26,19.55,152.4
"2010-07-21 00:32:30",366,7.789,187.8,0.882,0.135,19.77,107.5988,18.73,19.62,77,0,110.7,13.26,19.55,149.8
"2010-07-21 00:33:00",367,7.945,189.5,1.089,0.173,19.67,107.6013,18.74,19.62,76.59,0,110.7,13.26,19.55,151.5
"2010-07-21 00:33:30",368,8.29,192.6,1.251,0.304,19.68,107.6086,18.76,19.62,76.77,0,110.7,13.26,19.57,154.6
"2010-07-21 00:34:00",369,8.69,193.2,1.156,0.249,19.69,107.623,18.79,19.64,76.69,0,110.7,13.26,19.61,155.2
"2010-07-21 00:34:30",370,8.64,193.9,1.211,0.113,19.68,107.6297,18.81,19.65,76.71,0,110.7,13.26,19.63,155.9
"2010-07-21 00:35:00",371,8.65,191.3,0.877,0.126,19.71,107.6326,18.82,19.68,76.17,0,110.7,13.26,19.63,153.3
"2010-07-21 00:35:30",372,8.99,193.2,1.076,0.296,19.73,107.6326,18.82,19.67,75.44,0,110.7,13.26,19.63,155.2
"2010-07-21 00:36:00",373,9.33,193.5,0.927,0.187,19.75,107.6342,18.82,19.69,74.61,0,110.7,13.26,19.64,155.5
"2010-07-21 00:36:30",374,9.33,192.5,1.161,0.125,19.77,107.6531,18.87,19.71,74.05,0,110.7,13.26,19.69,154.5
"2010-07-21 00:37:00",375,9.49,190.7,1.596,0.132,19.83,107.6649,18.9,19.71,73.52,0,110.7,13.26,19.72,152.7
"2010-07-21 00:37:30",376,9.39,192.7,0.797,0.112,19.79,107.6663,18.9,19.74,73.05,0,110.7,13.26,19.72,154.7
"2010-07-21 00:38:00",377,9.6,193.6,0.874,0.216,19.73,107.6669,18.91,19.77,73.1,0,110.7,13.26,19.72,155.6
"2010-07-21 00:38:30",378,9.61,193.1,0.623,0.112,19.76,107.6762,18.93,19.78,72.8,0,110.7,13.26,19.75,155.1
"2010-07-21 00:39:00",379,9.7,192.5,0.754,0.12,19.71,107.6933,18.97,19.8,72.83,0,110.7,13.26,19.79,154.5
"2010-07-21 00:39:30",380,9.45,192.3,0.686,0.187,19.71,107.7001,18.99,19.82,72.78,0,110.7,13.26,19.81,154.3
"2010-07-21 00:40:00",381,9.41,192.3,0.474,0.094,19.75,107.7001,18.99,19.84,72.92,0,110.7,13.26,19.81,154.3
"2010-07-21 00:40:30",382,9.47,191.6,1.213,0.124,19.7,107.7001,18.99,19.85,73.12,0,110.7,13.26,19.81,153.6
"2010-07-21 00:41:00",383,9.77,191,1.961,0.148,19.75,107.7001,18.99,19.85,73.79,0,110.7,13.26,19.81,153.0
"2010-07-21 00:41:30",384,9.57,192,1.563,0.182,19.66,107.7001,18.99,19.88,74.05,0,110.7,13.26,19.81,154.0
"2010-07-21 00:42:00",385,9.76,191.3,2.112,0.147,19.67,107.7001,18.99,19.85,74.41,0,110.7,13.26,19.81,153.3
"2010-07-21 00:42:30",386,9.87,193.2,1.998,0.338,19.71,107.7001,18.99,19.88,74.6,0,110.7,13.25,19.81,155.2
"2010-07-21 00:43:00",387,9.49,189.7,1.712,0.461,19.79,107.7001,18.99,19.87,74.88,0,110.7,13.25,19.81,151.7
"2010-07-21 00:43:30",388,8.86,195.1,3.318,0.386,19.68,107.7001,18.99,19.87,74.9,0,110.7,13.25,19.81,157.1
"2010-07-21 00:44:00",389,9.51,192.7,1.776,0.324,19.73,107.7001,18.99,19.86,74.86,0,110.7,13.25,19.81,154.7
"2010-07-21 00:44:30",390,9.75,193.7,2.032,0.169,19.7,107.7001,18.99,19.88,74.86,0,110.7,13.25,19.81,155.7
"2010-07-21 00:45:00",391,9.65,192,2.751,0.371,19.75,107.7001,18.99,19.87,75.04,0,110.7,13.25,19.81,154.0
"2010-07-21 00:45:30",392,9.15,192.6,1.284,0.46,19.75,107.7001,18.99,19.88,75.09,0,110.7,13.25,19.81,154.6
"2010-07-21 00:46:00",393,9.46,188.8,1.941,0.24,19.82,107.7001,18.99,19.87,75.23,0,110.7,13.25,19.81,150.8
"2010-07-21 00:46:30",394,10.21,191,2.01,0.276,19.85,107.7001,18.99,19.87,75.27,0,110.7,13.25,19.81,153.0
"2010-07-21 00:47:00",395,10.24,190.6,1.185,0.149,19.86,107.7001,18.99,19.89,75.4,0,110.7,13.25,19.81,152.6
"2010-07-21 00:47:30",396,10.46,190.5,1.576,0.217,19.87,107.7001,18.99,19.87,75.38,0,110.7,13.25,19.81,152.5
"2010-07-21 00:48:00",397,10.9,190.1,1.203,0.333,19.89,107.7001,18.99,19.87,75.41,0,110.7,13.26,19.81,152.1
"2010-07-21 00:48:30",398,10.86,191.1,1.152,0.122,19.88,107.7001,18.99,19.87,75.34,0,110.7,13.26,19.81,153.1
"2010-07-21 00:49:00",399,10.9,192.5,1.749,0.207,19.84,107.6981,18.99,19.87,75.62,0,110.7,13.26,19.80,154.5
"2010-07-21 00:49:30",400,9.79,196.9,1.725,0.343,19.73,107.6962,18.98,19.88,75.72,0,110.7,13.26,19.80,158.9
"2010-07-21 00:50:00",401,10.3,193.2,2.286,0.358,19.79,107.6914,18.97,19.87,75.91,0,110.7,13.26,19.79,155.2
"2010-07-21 00:50:30",402,9.84,195.6,2.044,0.266,19.79,107.6826,18.95,19.87,76.01,0,110.7,13.26,19.76,157.6
"2010-07-21 00:51:00",403,10.01,194.8,1.327,0.311,19.78,107.6776,18.93,19.86,76.11,0,110.7,13.26,19.75,156.8
"2010-07-21 00:51:30",404,9.44,194.4,1.648,0.295,19.76,107.6748,18.93,19.87,76.21,0,110.7,13.26,19.74,156.4
"2010-07-21 00:52:00",405,10.16,195.6,1.504,0.296,19.73,107.6711,18.92,19.87,76.3,0,110.7,13.26,19.73,157.6
"2010-07-21 00:52:30",406,10.34,192.2,3.165,0.257,19.83,107.6669,18.91,19.85,76.41,0,110.7,13.26,19.72,154.2
"2010-07-21 00:53:00",407,10.4,195.3,2.266,0.207,19.77,107.6666,18.9,19.86,76.53,0,110.7,13.26,19.72,157.3
"2010-07-21 00:53:30",408,10.04,196.5,2.168,0.424,19.68,107.6663,18.9,19.83,76.36,0,110.7,13.26,19.72,158.5
"2010-07-21 00:54:00",409,9.49,195.6,2.412,0.232,19.73,107.6663,18.9,19.83,76.38,0,110.7,13.26,19.72,157.6
"2010-07-21 00:54:30",410,9.79,198.8,1.978,0.16,19.63,107.6663,18.9,19.81,76.48,0,110.7,13.26,19.72,160.8
"2010-07-21 00:55:00",411,10.32,195.1,1.534,0.186,19.77,107.6663,18.9,19.82,76.7,0,110.7,13.26,19.72,157.1
"2010-07-21 00:55:30",412,9.89,195.4,1.315,0.286,19.76,107.6663,18.9,19.82,76.85,0,110.7,13.26,19.72,157.4
"2010-07-21 00:56:00",413,9.76,193.4,1.494,0.229,19.83,107.6638,18.9,19.82,77.08,0,110.7,13.26,19.72,155.4
"2010-07-21 00:56:30",414,10.09,195.2,1.644,0.589,19.76,107.6576,18.88,19.8,77.25,0,110.7,13.26,19.70,157.2
"2010-07-21 00:57:00",415,10.51,194,1.669,0.237,19.81,107.6565,18.88,19.8,77.39,0,110.7,13.26,19.70,156.0
"2010-07-21 00:57:30",416,10.63,197,0.701,0.173,19.73,107.6562,18.88,19.79,77.35,0,110.7,13.26,19.70,159.0
"2010-07-21 00:58:00",417,10.55,195.3,1.491,0.224,19.74,107.6466,18.85,19.79,77.43,0,110.7,13.26,19.67,157.3
"2010-07-21 00:58:30",418,10.74,194.8,1.923,0.179,19.77,107.634,18.82,19.78,77.57,0,110.7,13.26,19.64,156.8
"2010-07-21 00:59:00",419,10.56,196.6,1.253,0.141,19.74,107.6326,18.82,19.77,77.81,0,110.7,13.26,19.63,158.6
"2010-07-21 00:59:30",420,10.46,198.9,3.02,0.443,19.66,107.6335,18.82,19.77,77.77,0,110.7,13.26,19.64,160.9
"2010-07-21 01:00:00",421,10.55,200.1,1.274,0.298,19.72,107.6326,18.82,19.77,77.74,0,110.7,13.26,19.63,162.1
"2010-07-21 01:00:30",422,10.4,198.1,2.145,0.357,19.71,107.6329,18.82,19.76,77.74,0,110.7,13.25,19.64,160.1
"2010-07-21 01:01:00",423,10.45,199.9,1.623,0.286,19.72,107.6332,18.82,19.76,77.86,0,110.7,13.25,19.64,161.9
"2010-07-21 01:01:30",424,10.67,198.9,1.2,0.422,19.73,107.6332,18.82,19.75,78.07,0,110.7,13.25,19.64,160.9
"2010-07-21 01:02:00",425,10.48,200.1,1.177,0.272,19.73,107.632,18.82,19.74,78.11,0,110.7,13.25,19.63,162.1
"2010-07-21 01:02:30",426,10.68,202.2,1.814,0.248,19.72,107.6256,18.8,19.73,78.17,0,110.7,13.25,19.62,164.2
"2010-07-21 01:03:00",427,10.91,204.8,0.626,0.107,19.77,107.6132,18.77,19.71,77.32,0,110.7,13.25,19.59,166.8
"2010-07-21 01:03:30",428,10.96,204.9,1.304,0.158,19.74,107.6132,18.77,19.71,76.98,0,110.7,13.25,19.59,166.9
"2010-07-21 01:04:00",429,10.94,204.7,1.938,0.243,19.71,107.6115,18.76,19.71,77.06,0,110.7,13.26,19.58,166.7
"2010-07-21 01:04:30",430,11.21,202.1,1.057,0.211,19.74,107.6121,18.76,19.7,76.7,0,110.7,13.26,19.58,164.1
"2010-07-21 01:05:00",431,11.33,205,1.743,0.16,19.76,107.6188,18.78,19.7,76.13,0,110.7,13.26,19.60,167.0
"2010-07-21 01:05:30",432,10.87,206.6,1.094,0.239,19.77,107.6301,18.81,19.71,76.23,0,110.7,13.26,19.63,168.6
"2010-07-21 01:06:00",433,10.53,205.2,1.574,0.216,19.72,107.6332,18.82,19.72,76.42,0,110.7,13.26,19.64,167.2
"2010-07-21 01:06:30",434,10.76,204.9,1.724,0.464,19.75,107.6347,18.82,19.71,76.69,0,110.7,13.26,19.64,166.9
"2010-07-21 01:07:00",435,10.53,205.2,1.501,0.242,19.8,107.6344,18.82,19.71,76.76,0,110.7,13.26,19.64,167.2
"2010-07-21 01:07:30",436,10.92,206.2,1.628,0.733,19.74,107.6344,18.82,19.72,76.57,0,110.7,13.26,19.64,168.2
"2010-07-21 01:08:00",437,10.72,205.2,2.199,0.298,19.79,107.6347,18.82,19.72,76.13,0,110.7,13.26,19.64,167.2
"2010-07-21 01:08:30",438,10.09,202.8,1.322,0.343,19.75,107.6347,18.82,19.73,76.6,0,110.7,13.26,19.64,164.8
"2010-07-21 01:09:00",439,10.8,206.2,1.627,0.46,19.75,107.6335,18.82,19.72,76.17,0,110.7,13.26,19.64,168.2
"2010-07-21 01:09:30",440,10.19,207.5,2.737,0.334,19.76,107.6371,18.83,19.74,76.19,0,110.7,13.26,19.65,169.5
"2010-07-21 01:10:00",441,9.97,206.5,2.156,0.47,19.75,107.6359,18.83,19.74,76.71,0,110.7,13.26,19.64,168.5
"2010-07-21 01:10:30",442,10.84,205,2.72,0.413,19.76,107.6377,18.83,19.73,76.52,0,110.7,13.26,19.65,167.0
"2010-07-21 01:11:00",443,10.39,209.2,2.329,0.583,19.7,107.6374,18.83,19.73,76.31,0,110.7,13.26,19.65,171.2
"2010-07-21 01:11:30",444,9.37,207.3,3.084,0.537,19.73,107.6368,18.83,19.73,76.54,0,110.7,13.26,19.65,169.3
"2010-07-21 01:12:00",445,9.95,207.2,2.141,0.484,19.71,107.6398,18.84,19.72,76.74,0,110.7,13.26,19.65,169.2
"2010-07-21 01:12:30",446,9.66,206.7,2.366,0.664,19.73,107.6383,18.83,19.72,76.61,0,110.7,13.26,19.65,168.7
"2010-07-21 01:13:00",447,8.24,209,2.841,0.568,19.68,107.6402,18.84,19.71,76.9,0,110.7,13.26,19.65,171.0
"2010-07-21 01:13:30",448,8.6,208.8,2.516,0.409,19.72,107.6396,18.84,19.72,77.08,0,110.7,13.26,19.65,170.8
"2010-07-21 01:14:00",449,9.81,210,2.015,0.36,19.72,107.6366,18.83,19.71,76.75,0,110.7,13.26,19.65,172.0
"2010-07-21 01:14:30",450,9.11,209.7,1.972,0.337,19.72,107.6343,18.82,19.71,76.96,0,110.7,13.26,19.64,171.7
"2010-07-21 01:15:00",451,9.32,206.9,1.615,0.4,19.72,107.6317,18.82,19.71,76.84,0,110.7,13.26,19.63,168.9
"2010-07-21 01:15:30",452,9.05,208.1,1.938,0.293,19.7,107.6251,18.8,19.71,77.05,0,110.7,13.26,19.62,170.1
"2010-07-21 01:16:00",453,9.58,205,2.896,0.572,19.72,107.6226,18.79,19.71,77.03,0,110.7,13.26,19.61,167.0
"2010-07-21 01:16:30",454,9.64,208.4,2.761,0.642,19.68,107.6184,18.78,19.71,77.21,0,110.7,13.26,19.60,170.4
"2010-07-21 01:17:00",455,10.56,206.9,1.456,0.416,19.73,107.6166,18.78,19.69,77.18,0,110.7,13.26,19.59,168.9
"2010-07-21 01:17:30",456,10.47,209.1,2.119,0.298,19.71,107.6163,18.78,19.69,77.19,0,110.7,13.26,19.59,171.1
"2010-07-21 01:18:00",457,10.65,211.5,1.357,0.267,19.69,107.6179,18.78,19.69,77.26,0,110.7,13.26,19.60,173.5
"2010-07-21 01:18:30",458,10.41,210.6,2.332,0.199,19.67,107.6188,18.78,19.68,77.18,0,110.7,13.26,19.60,172.6
"2010-07-21 01:19:00",459,10.11,211.1,2.295,0.63,19.68,107.6197,18.78,19.69,77.28,0,110.7,13.26,19.60,173.1
"2010-07-21 01:19:30",460,9.47,213.8,1.492,0.2,19.7,107.6218,18.79,19.66,77.27,0,110.7,13.26,19.61,175.8
"2010-07-21 01:20:00",461,9.53,216.4,1.597,0.172,19.68,107.616,18.77,19.66,77.33,0,110.7,13.26,19.59,178.4
"2010-07-21 01:20:30",462,9.05,217.6,2.935,0.29,19.72,107.6144,18.77,19.65,77.14,0,110.7,13.26,19.59,179.6
"2010-07-21 01:21:00",463,9.34,213.6,2.582,0.211,19.71,107.6105,18.76,19.65,77.39,0,110.7,13.26,19.58,175.6
"2010-07-21 01:21:30",464,9.18,214.8,2.964,0.288,19.62,107.6095,18.76,19.63,77.45,0,110.7,13.26,19.58,176.8
"2010-07-21 01:22:00",465,9.39,213.5,1.681,0.128,19.58,107.5972,18.73,19.64,77.59,0,110.7,13.26,19.54,175.5
"2010-07-21 01:22:30",466,9.31,210.5,1.754,0.284,19.65,107.5913,18.71,19.63,77.68,0,110.7,13.27,19.53,172.5
"2010-07-21 01:23:00",467,9.25,211.4,1.594,0.239,19.67,107.5904,18.71,19.62,77.67,0,110.7,13.27,19.53,173.4
"2010-07-21 01:23:30",468,8.68,214.9,2.994,0.184,19.59,107.5913,18.71,19.61,77.6,0,110.7,13.27,19.53,176.9
"2010-07-21 01:24:00",469,8.3,219.1,4.98,0.416,19.58,107.5913,18.71,19.62,77.75,0,110.7,13.27,19.53,181.1
"2010-07-21 01:24:30",470,8.09,222.4,4.16,0.603,19.58,107.5917,18.71,19.6,77.69,0,110.7,13.27,19.53,184.4
"2010-07-21 01:25:00",471,9.54,219.8,5.435,0.536,19.73,107.5923,18.71,19.58,76.69,0,110.7,13.27,19.53,181.8
"2010-07-21 01:25:30",472,9.45,223.4,2.272,0.416,19.72,107.5919,18.71,19.58,76.62,0,110.7,13.27,19.53,185.4
"2010-07-21 01:26:00",473,8.97,219.3,3.44,0.397,19.63,107.5923,18.71,19.58,76.63,0,110.7,13.27,19.53,181.3
"2010-07-21 01:26:30",474,9.18,213.8,2.607,0.345,19.59,107.5926,18.71,19.58,76.58,0,110.7,13.27,19.53,175.8
"2010-07-21 01:27:00",475,9.84,213.7,1.693,0.103,19.83,107.5923,18.71,19.57,75.8,0,110.7,13.27,19.53,175.7
"2010-07-21 01:27:30",476,9.99,217.4,2.058,0.233,19.76,107.5928,18.72,19.57,75.24,0,110.7,13.27,19.53,179.4
"2010-07-21 01:28:00",477,9.78,219,3.757,0.467,19.96,107.6092,18.76,19.59,74.64,0,110.7,13.27,19.57,181.0
"2010-07-21 01:28:30",478,8.78,224.6,2.458,0.447,19.5,107.6244,18.8,19.63,76.17,0,110.7,13.27,19.61,186.6
"2010-07-21 01:29:00",479,9.59,225.5,0.975,0.165,19.67,107.6259,18.8,19.62,75.65,0,110.7,13.27,19.62,187.5
"2010-07-21 01:29:30",480,9.54,226,1.273,0.146,19.53,107.6224,18.79,19.64,75.83,0,110.7,13.27,19.61,188.0
"2010-07-21 01:30:00",481,9.48,227.1,1.746,0.462,19.58,107.6236,18.79,19.63,76.03,0,110.7,13.27,19.61,189.1
"2010-07-21 01:30:30",482,8.82,227.1,2.77,0.53,19.48,107.6143,18.77,19.64,76.44,0,110.7,13.27,19.59,189.1
"2010-07-21 01:31:00",483,9.64,227.5,3.567,0.205,19.61,107.6007,18.74,19.62,75.67,0,110.7,13.27,19.55,189.5
"2010-07-21 01:31:30",484,9.41,232.4,2.724,0.154,19.54,107.597,18.73,19.62,76.14,0,110.7,13.27,19.54,194.4
"2010-07-21 01:32:00",485,8.63,235.7,3.609,0.323,19.52,107.5965,18.72,19.62,76.39,0,110.7,13.27,19.54,197.7
"2010-07-21 01:32:30",486,9.31,239.2,2.042,0.254,19.5,107.5971,18.73,19.62,76.71,0,110.7,13.27,19.54,201.2
"2010-07-21 01:33:00",487,9.03,237.3,2.415,0.243,19.44,107.5977,18.73,19.61,76.83,0,110.7,13.26,19.55,199.3
"2010-07-21 01:33:30",488,9,240.4,3.296,0.338,19.48,107.5971,18.73,19.6,76.39,0,110.7,13.26,19.54,202.4
"2010-07-21 01:34:00",489,8.6,240.8,2.028,0.238,19.45,107.5951,18.72,19.58,76.44,0,110.7,13.26,19.54,202.8
"2010-07-21 01:34:30",490,8.54,241.1,3.597,0.238,19.41,107.5852,18.7,19.58,76.07,0,110.7,13.26,19.51,203.1
"2010-07-21 01:35:00",491,8.85,240.4,2.255,0.243,19.4,107.5713,18.66,19.58,75.96,0,110.7,13.26,19.48,202.4
"2010-07-21 01:35:30",492,8.37,242.4,2.508,0.264,19.42,107.5711,18.66,19.56,75.82,0,110.7,13.26,19.48,204.4
"2010-07-21 01:36:00",493,8.47,242.6,3.622,0.408,19.55,107.5768,18.67,19.56,75.25,0,110.7,13.26,19.49,204.6
"2010-07-21 01:36:30",494,8.4,240.8,1.814,0.525,19.53,107.5954,18.72,19.56,75.04,0,110.7,13.26,19.54,202.8
"2010-07-21 01:37:00",495,6.922,244.4,3.096,0.368,19.3,107.5965,18.72,19.56,75.61,0,110.7,13.26,19.54,206.4
"2010-07-21 01:37:30",496,8.23,242.5,2.896,0.369,19.42,107.5964,18.72,19.56,75.01,0,110.7,13.26,19.54,204.5
"2010-07-21 01:38:00",497,7.759,248.2,5.468,0.407,19.47,107.5981,18.73,19.55,73.16,0,110.7,13.26,19.55,210.2
"2010-07-21 01:38:30",498,8.31,251.1,2.694,0.556,19.5,107.5998,18.73,19.55,73.67,0,110.7,13.27,19.55,213.1
"2010-07-21 01:39:00",499,8.47,244.2,5.201,0.289,19.55,107.598,18.73,19.56,72.23,0,110.7,13.27,19.55,206.2
"2010-07-21 01:39:30",500,8.22,245.3,1.4,0.175,19.64,107.6004,18.73,19.57,69.97,0,110.7,13.27,19.55,207.3
"2010-07-21 01:40:00",501,8.81,246.9,0.775,0.221,19.67,107.6249,18.8,19.58,65.64,0,110.7,13.27,19.62,208.9
"2010-07-21 01:40:30",502,9.02,247,0.824,0.254,19.68,107.6336,18.82,19.6,65.57,0,110.7,13.27,19.64,209.0
"2010-07-21 01:41:00",503,8.79,247.6,1.068,0.154,19.62,107.6621,18.89,19.65,66.46,0,110.7,13.27,19.71,209.6
"2010-07-21 01:41:30",504,8.69,247.1,1.377,0.239,19.66,107.6743,18.92,19.69,66.59,0,110.7,13.27,19.74,209.1
"2010-07-21 01:42:00",505,7.267,245.1,2.549,0.55,19.31,107.6937,18.97,19.74,69.12,0,110.7,13.27,19.79,207.1
"2010-07-21 01:42:30",506,8.52,246,0.904,0.18,19.75,107.6962,18.98,19.75,67.97,0,110.7,13.27,19.80,208.0
"2010-07-21 01:43:00",507,8.86,248.2,0.749,0.188,19.64,107.7024,19,19.77,67.96,0,110.7,13.27,19.81,210.2
"2010-07-21 01:43:30",508,8.63,248.7,0.746,0.133,19.61,107.7018,18.99,19.81,68.37,0,110.7,13.27,19.81,210.7
"2010-07-21 01:44:00",509,8.55,248.9,1.007,0.207,19.63,107.7027,19,19.8,68.71,0,110.7,13.27,19.82,210.9
"2010-07-21 01:44:30",510,8.43,248.7,1.707,0.218,19.58,107.7118,19.02,19.84,69.03,0,110.7,13.27,19.84,210.7
"2010-07-21 01:45:00",511,8.09,249.8,3.673,0.72,19.3,107.7249,19.05,19.86,69.19,0,110.7,13.27,19.87,211.8
"2010-07-21 01:45:30",512,7.811,244.8,2.368,0.323,19.27,107.7147,19.03,19.87,69.51,0,110.7,13.27,19.85,206.8
"2010-07-21 01:46:00",513,7.596,242.2,1.818,0.16,19.25,107.7053,19,19.86,69.3,0,110.7,13.27,19.82,204.2
"2010-07-21 01:46:30",514,7.954,243.1,3.003,0.465,19.3,107.7,18.99,19.86,69.36,0,110.7,13.27,19.81,205.1
"2010-07-21 01:47:00",515,8.31,243.5,1.485,0.217,19.39,107.7006,18.99,19.86,69.67,0,110.7,13.27,19.81,205.5
"2010-07-21 01:47:30",516,7.612,244.7,3.287,0.352,19.34,107.6982,18.99,19.84,69.5,0,110.7,13.27,19.80,206.7
"2010-07-21 01:48:00",517,7,250.7,3.005,0.307,19.27,107.6972,18.98,19.84,69.41,0,110.7,13.27,19.80,212.7
"2010-07-21 01:48:30",518,6.646,239.1,4.713,0.439,19.23,107.6922,18.97,19.84,69.57,0,110.7,13.27,19.79,201.1
"2010-07-21 01:49:00",519,6.635,241.2,3.107,0.247,19.23,107.6743,18.92,19.83,69.66,0,110.7,13.27,19.74,203.2
"2010-07-21 01:49:30",520,6.342,247.8,2.869,0.286,19.2,107.6649,18.9,19.81,69.69,0,110.7,13.26,19.72,209.8
"2010-07-21 01:50:00",521,6.464,247.7,2.79,0.421,19.16,107.6641,18.9,19.79,69.68,0,110.7,13.26,19.72,209.7
"2010-07-21 01:50:30",522,6.74,249.3,2.731,0.638,19.22,107.6626,18.89,19.77,69.98,0,110.7,13.26,19.71,211.3
"2010-07-21 01:51:00",523,7.162,242.1,4.854,0.53,19.14,107.6595,18.89,19.77,69.77,0,110.7,13.26,19.70,204.1